Air Force Academy, CO

9:38 PM MDT on May 28, 2017 (GMT -0600)
Usaf Academy

Weather History for KAFF - August, 2013

Change the Weather History Date:

Tuesday, August 6, 2013

  Actual Average Record
Temperature  
Mean Temperature 70 °F -  
Max Temperature 86 °F 78 °F 90 °F (2015)
Min Temperature 57 °F 52 °F 48 °F (1998)
Cooling Degree Days 6    
Growing Degree Days 20 (Base 50)    
Moisture  
Dew Point 42 °F    
Average Humidity 38    
Maximum Humidity 72    
Minimum Humidity 16    
Precipitation  
Precipitation 0.00 in - - ()
Sea Level Pressure  
Sea Level Pressure 29.94 in    
Wind  
Wind Speed 9 mph (North)    
Max Wind Speed 22 mph    
Max Gust Speed 32 mph    
Visibility 10 miles    
Events Rain    
Averages and records for this station are not official NWS values.
T = Trace of Precipitation, MM = Missing Value Source: NWS Daily Summary

Daily Weather History Graph

Daily Weather History Graph

Search for Another Location

Airport or City:

Trip Planner

Search our weather history database for the weather conditions in past years. The results will help you decide how hot, cold, wet, or windy it might be!

Date:

Astronomy

Aug. 06, 2013 Rise Set
Actual Time 6:04 AM MDT 8:04 PM MDT
Civil Twilight 5:35 AM MDT 8:33 PM MDT
Nautical Twilight 4:59 AM MDT 9:09 PM MDT
Astronomical Twilight 4:21 AM MDT 9:47 PM MDT
Moon 5:57 AM MDT (8/6) 7:41 PM MDT (8/6)
Length of Visible Light 14h 58m
Length of Day
13h 59m
Waning Crescent, 0% of the Moon is Illuminated
Aug 6
Waning Crescent
Aug 6
New
Aug 14
First Quarter
Aug 20
Full
Aug 28
Last Quarter

Hourly Weather History & Observations

Time (MDT) Temp. Dew Point Humidity Pressure Visibility Wind Dir Wind Speed Gust Speed Precip Events Conditions
12:58 AM 60.3 °F 51.1 °F 72% 29.93 in 10.0 mi NNW 3.5 mph - N/A   Mostly Cloudy
1:58 AM 61.2 °F 49.6 °F 66% 29.90 in 10.0 mi North 2.3 mph - N/A   Clear
2:58 AM 58.6 °F 49.6 °F 72% 29.89 in 10.0 mi NNW 3.5 mph - N/A   Clear
3:58 AM 57.7 °F 48.7 °F 72% 29.87 in 10.0 mi NNW 5.8 mph - N/A   Clear
4:58 AM 57.7 °F 48.7 °F 72% 29.87 in 10.0 mi NNW 5.8 mph - N/A   Overcast
5:58 AM 66.2 °F 46.4 °F 49% 29.84 in 10.0 mi Variable 1.2 mph - N/A   Clear
6:58 AM 67.8 °F 43.7 °F 42% 29.86 in 10.0 mi North 8.1 mph 17.3 mph N/A   Partly Cloudy
7:58 AM 70.9 °F 45.9 °F 41% 29.86 in 10.0 mi NNE 9.2 mph - N/A   Clear
8:58 AM 77.9 °F 41.0 °F 27% 29.86 in 10.0 mi NNW 12.7 mph - N/A   Clear
9:58 AM 80.2 °F 37.2 °F 21% 29.86 in 10.0 mi North 15.0 mph - N/A   Clear
10:53 AM 82.4 °F 35.6 °F 19% 30.16 in 10.0 mi NNE 12.7 mph 18.4 mph N/A   Clear
10:58 AM 82.2 °F 34.9 °F 18% 29.88 in 10.0 mi NNE 10.4 mph 18.4 mph N/A   Clear
11:47 AM 82.4 °F 35.6 °F 19% 30.17 in 10.0 mi NNE 16.1 mph - N/A   Clear
11:58 AM 83.5 °F 33.6 °F 17% 29.86 in 10.0 mi NE 13.8 mph 19.6 mph N/A   Clear
12:53 PM 84.2 °F 33.8 °F 16% 30.16 in 10.0 mi NE 11.5 mph 20.7 mph N/A   Partly Cloudy
12:58 PM 84.9 °F 33.8 °F 16% 29.86 in 10.0 mi NE 11.5 mph 20.7 mph N/A   Partly Cloudy
1:58 PM 84.2 °F 35.4 °F 17% 29.83 in 10.0 mi NNE 8.1 mph - N/A   Scattered Clouds
2:58 PM 82.9 °F 35.8 °F 18% 29.83 in 10.0 mi NE 5.8 mph - N/A   Partly Cloudy
3:58 PM 80.6 °F 35.8 °F 20% 29.86 in 10.0 mi SE 6.9 mph - N/A   Scattered Clouds
4:58 PM 75.4 °F 42.6 °F 31% 29.89 in 10.0 mi West 21.9 mph 28.8 mph N/A   Scattered Clouds
5:50 PM 71.6 °F 42.8 °F 35% 30.19 in 10.0 mi NW 21.9 mph 28.8 mph N/A   Partly Cloudy
5:58 PM 71.6 °F 42.8 °F 35% 29.93 in 10.0 mi North 17.3 mph 32.2 mph N/A   Partly Cloudy
6:03 PM 71.6 °F 44.6 °F 38% 30.20 in 10.0 mi North 21.9 mph 32.2 mph N/A Rain Light Rain
6:37 PM 71.6 °F 44.6 °F 38% 30.21 in 10.0 mi North 15.0 mph - N/A   Scattered Clouds
6:58 PM 70.7 °F 45.0 °F 40% 29.95 in 10.0 mi NNW 10.4 mph - 0.00 in   Partly Cloudy
7:58 PM 69.1 °F 44.8 °F 42% 29.92 in 10.0 mi NW 12.7 mph - N/A   Clear
8:58 PM 67.6 °F 44.8 °F 44% 29.91 in 10.0 mi WNW 16.1 mph 23.0 mph N/A   Mostly Cloudy
9:58 PM 65.5 °F 45.9 °F 49% 29.92 in 10.0 mi North 9.2 mph 18.4 mph N/A   Clear
10:58 PM 66.0 °F 45.0 °F 47% 29.90 in 10.0 mi Variable 6.9 mph - N/A   Partly Cloudy
11:58 PM 62.8 °F 46.4 °F 55% 29.90 in 10.0 mi NE 6.9 mph - N/A   Scattered Clouds